GFSWCAN_925_temp_159.txt.gz
Temp
11 10 10 9 9 9 9 9 9 9 9 9 9 9 9 9 9 9 11 14 13 13 14 16 19 16 17 18 19 20 21 22 22 20 22 22 23 23 24 25 25 24 24 24 24 24 24 23 26 27 26 25 25 24
10 10 10 9 9 9 9 9 9 9 9 8 9 9 9 9 9 9 11 12 14 13 14 14 15 16 16 18 18 19 19 20 20 18 18 19 19 22 21 22 22 23 21 23 23 23 22 24 25 24 23 24 25 26
10 9 9 9 9 9 9 9 8 8 8 8 8 8 9 9 9 8 9 10 12 14 15 17 19 19 22 18 19 18 19 21 21 21 20 20 20 21 18 18 19 20 19 19 20 23 24 22 22 21 23 25 24 24
8 9 9 9 9 8 8 8 8 8 8 8 8 8 8 9 9 8 8 10 12 12 12 16 18 18 19 20 21 21 21 21 21 20 19 20 20 22 19 19 17 18 19 17 18 21 22 24 20 19 22 27 28 22
9 9 9 9 8 8 8 8 8 8 8 8 8 8 8 8 9 9 9 10 12 12 11 13 15 19 21 22 21 22 23 21 20 19 19 19 21 21 21 20 21 18 18 18 18 20 20 20 20 22 20 24 25 21
9 9 8 8 8 8 8 8 8 8 8 8 8 7 8 8 9 9 12 11 11 11 11 13 17 19 20 23 23 22 22 20 20 19 19 20 22 21 20 20 22 22 22 21 20 20 18 19 20 21 22 23 25 20
8 8 8 8 8 8 8 8 8 8 8 8 8 8 8 8 8 10 11 10 10 10 11 12 16 21 22 22 21 20 21 21 20 20 20 20 21 20 20 19 21 21 21 21 20 20 19 20 20 22 21 22 22 22
8 8 8 8 7 7 7 7 8 8 8 8 8 8 8 9 9 9 12 12 11 10 12 12 16 19 23 19 19 18 17 19 20 20 20 19 20 19 18 21 22 23 21 20 19 19 18 18 18 19 20 21 21 24
8 8 7 7 7 7 7 7 8 8 9 9 9 10 9 9 13 12 12 12 11 12 12 14 16 17 20 20 19 18 16 16 17 18 19 20 18 16 19 20 22 22 21 20 19 18 18 18 19 18 21 19 19 20
7 7 7 7 7 7 7 7 8 9 10 10 10 11 13 13 13 12 11 11 10 10 11 13 17 17 19 18 18 17 16 16 17 17 17 18 19 20 18 18 18 19 19 20 20 18 19 19 19 19 18 17 17 16
7 7 7 7 7 7 7 8 8 9 11 12 12 14 13 13 13 14 13 13 14 13 14 16 17 16 19 17 16 17 17 17 17 18 18 18 17 19 18 16 17 17 16 21 21 20 20 20 19 19 19 16 16 16
7 7 7 7 7 7 7 7 8 8 9 8 8 10 12 14 14 14 15 17 16 17 16 16 17 18 18 17 16 16 17 17 18 18 16 17 17 18 18 18 17 16 16 21 23 23 22 22 20 18 17 18 17 18
7 7 7 7 7 7 7 7 7 7 8 10 10 12 13 14 12 15 17 16 15 14 16 16 17 18 18 16 17 16 17 18 19 17 18 18 18 18 17 17 17 17 18 20 21 23 23 21 21 19 18 18 21 18
7 7 7 8 8 7 8 8 7 8 8 11 13 9 14 15 17 17 16 16 16 15 17 17 17 16 16 16 16 16 17 18 18 18 16 17 17 17 17 18 19 17 19 18 19 22 22 20 18 20 18 18 18 19
7 7 8 8 8 8 7 7 7 7 9 12 14 12 16 18 19 19 19 18 16 19 18 17 17 15 14 15 15 17 18 18 18 17 17 17 17 17 17 17 18 17 17 16 17 21 22 20 20 18 19 18 18 24
7 8 8 8 8 8 8 8 8 9 11 13 15 16 17 18 18 19 18 16 15 18 18 16 13 13 14 13 15 17 17 17 16 15 16 17 17 17 17 17 18 16 20 20 19 18 20 22 22 22 22 24 25 26
7 8 8 8 8 8 9 8 10 11 13 14 15 17 17 17 17 18 19 19 19 18 16 14 13 14 13 14 15 14 15 15 14 16 17 16 16 16 17 17 17 19 20 21 21 20 19 20 21 23 21 23 24 23
7 7 8 8 9 9 9 9 11 14 14 15 16 17 18 17 18 19 19 18 18 17 17 16 15 14 14 14 14 13 14 14 14 16 17 16 16 16 17 17 18 18 20 19 20 22 22 21 16 16 18 21 24 22
7 8 8 8 8 9 10 12 13 13 15 17 17 17 18 18 18 18 18 18 18 18 18 16 15 14 14 14 14 14 14 15 16 17 17 17 16 16 17 18 18 19 18 17 17 18 20 17 16 15 15 15 19 20
8 8 8 8 8 10 11 13 14 14 15 17 16 16 16 17 18 18 18 18 16 17 17 17 18 17 18 17 15 15 15 16 17 18 16 15 17 18 18 18 19 17 17 17 16 17 17 16 16 17 16 15 15 15
8 9 9 8 9 9 12 14 13 14 15 15 17 17 17 18 17 18 18 19 18 16 16 18 19 19 19 19 19 19 18 18 17 18 18 18 19 19 19 20 18 17 16 15 15 15 16 19 18 19 19 18 19 19
9 9 9 9 10 12 12 14 14 14 14 15 16 17 16 17 17 18 18 16 15 17 18 17 16 16 15 16 17 18 18 18 18 18 19 19 19 20 20 21 16 15 15 14 15 15 15 21 20 19 19 20 20 20
8 9 10 10 11 10 10 14 14 15 14 16 17 16 16 17 18 18 15 14 14 15 17 16 17 17 17 17 18 17 17 17 17 18 19 20 21 21 20 18 17 15 15 15 16 16 15 20 22 22 20 19 19 19
8 10 11 11 11 11 15 14 15 15 15 15 16 16 17 17 18 16 16 14 14 15 15 16 17 16 17 17 16 16 17 17 18 19 20 21 20 19 18 16 17 18 18 19 18 17 17 22 22 22 21 19 19 19
8 9 9 7 12 13 14 15 15 15 15 16 15 16 17 16 16 16 16 14 14 14 15 16 18 18 17 17 16 18 17 18 16 16 17 17 17 19 16 16 17 19 19 20 18 21 22 22 21 21 21 21 21 20
8 11 9 14 15 15 15 15 15 14 15 16 16 17 16 16 16 16 14 14 14 15 16 16 17 17 17 18 17 17 17 17 17 18 16 17 17 16 16 17 19 19 20 20 21 21 21 21 21 22 21 20 21 21
9 13 14 16 15 15 15 15 15 15 15 16 16 17 16 16 14 13 13 14 15 17 17 17 17 17 17 18 17 17 16 16 16 17 19 20 20 20 20 19 19 20 20 20 20 20 20 20 20 20 21 21 21 21
13 14 14 14 14 14 14 14 14 14 16 17 16 16 15 16 15 15 15 16 17 17 16 16 17 17 16 16 16 15 15 15 17 19 20 20 20 20 20 20 20 20 20 20 20 20 20 20 20 20 20 20 21 21
13 15 14 14 14 14 14 14 15 16 17 16 16 16 16 17 17 17 15 15 14 15 16 16 17 17 16 15 15 15 15 15 17 18 19 19 20 20 20 20 20 20 20 20 19 19 19 19 19 19 19 19 19 19
14 15 14 14 14 14 15 15 16 17 17 17 16 16 15 16 16 15 14 13 13 14 14 15 16 16 16 17 17 17 17 18 17 17 17 18 19 19 19 19 20 20 19 20 20 19 19 19 19 19 18 18 17 17
15 15 14 14 14 15 16 17 16 16 15 14 13 12 12 12 11 12 12 12 14 14 15 15 15 16 16 17 18 19 17 16 15 15 16 17 17 17 17 19 19 19 19 19 19 18 18 18 17 16 15 14 14 14
16 15 14 14 15 16 14 13 11 10 10 10 10 10 10 10 12 14 13 13 14 15 16 17 18 19 18 17 16 15 14 13 13 13 14 14 15 16 17 17 18 18 18 18 18 17 15 14 15 14 14 13 13 13
16 16 16 16 15 14 11 10 10 10 11 11 12 12 13 14 17 17 15 14 16 17 18 18 19 19 18 16 15 14 14 13 13 13 13 14 14 14 15 15 16 16 16 17 16 14 14 14 14 13 12 12 12 12

GFSWCAN_925_temp_162.txt.gz
Temp
11 10 10 10 9 9 10 9 9 9 9 9 9 9 9 9 9 10 12 12 11 10 11 12 15 13 13 13 13 14 16 16 16 16 17 18 18 19 20 21 21 20 20 20 21 22 23 25 25 25 23 25 26 25
10 10 10 10 10 9 9 9 9 9 9 9 9 9 9 9 9 9 9 12 11 10 10 14 13 13 13 14 13 13 14 15 15 16 16 16 17 17 16 18 17 18 17 18 19 20 20 21 21 21 21 24 24 24
9 8 9 9 9 9 9 9 8 8 8 8 8 8 9 9 8 8 8 10 10 8 10 10 13 16 17 17 15 13 13 15 16 16 15 16 18 17 17 17 17 18 17 18 18 19 20 20 21 21 22 22 21 23
8 9 9 9 9 9 8 8 8 8 8 8 8 8 8 9 9 8 8 10 9 10 11 10 15 15 17 18 17 16 17 17 16 15 18 17 17 17 17 18 17 17 18 17 17 18 19 20 21 21 21 22 22 21
8 9 9 9 8 8 8 8 8 8 8 8 8 8 8 8 9 10 10 11 10 10 11 10 12 15 17 19 19 18 18 17 15 16 15 16 16 17 17 16 17 16 18 18 17 18 19 20 20 20 20 21 21 20
8 8 8 8 8 8 8 8 8 8 8 8 8 8 8 8 9 10 9 10 11 11 9 9 11 12 16 19 21 18 19 18 16 15 15 17 19 18 17 17 19 17 17 17 19 20 17 18 18 20 21 21 22 19
9 8 8 8 8 8 8 8 8 8 8 8 9 9 8 8 8 8 9 10 10 10 9 10 10 13 19 20 18 17 18 18 15 15 15 16 17 17 17 18 18 19 19 19 18 19 19 19 19 20 20 20 21 21
9 8 8 8 8 8 8 8 8 9 9 9 9 9 9 9 9 8 12 12 11 10 10 11 10 12 19 18 15 15 15 16 15 16 16 16 16 15 16 17 18 19 20 18 18 17 17 17 17 18 18 20 20 19
8 8 8 8 8 8 8 8 8 9 9 10 10 10 10 9 9 12 12 12 11 10 10 12 12 12 14 15 14 13 13 14 13 15 16 16 15 15 17 17 18 20 20 19 19 17 17 16 16 18 18 19 17 18
8 7 7 7 8 8 8 8 8 9 10 11 11 10 11 12 12 12 11 10 10 10 9 10 10 12 14 13 13 13 13 14 15 15 14 15 15 16 16 16 15 15 16 17 19 18 17 18 17 18 18 17 16 16
8 7 7 7 8 8 8 8 8 9 11 10 9 10 11 12 12 10 11 11 11 11 10 9 11 12 13 14 13 13 14 14 15 14 17 16 15 16 16 16 15 15 15 16 16 16 17 19 18 18 17 17 17 17
7 7 7 8 8 8 8 7 7 8 8 7 7 8 10 10 11 11 12 13 12 14 14 14 13 13 13 12 13 13 15 14 15 16 16 17 16 16 15 16 16 15 15 16 17 18 18 18 18 17 16 16 17 18
7 7 8 8 8 8 7 7 7 7 8 9 9 10 10 11 11 13 15 15 15 14 14 13 13 13 12 13 12 13 14 15 16 15 16 17 16 16 15 16 17 16 17 17 17 17 17 18 18 17 16 17 17 18
7 7 8 8 8 8 8 7 7 8 8 9 11 9 11 13 13 14 15 15 15 13 14 12 12 12 12 13 13 14 14 15 16 17 16 15 15 15 15 15 15 16 15 16 17 17 16 17 17 19 18 18 17 17
7 8 8 8 8 8 7 7 7 8 8 10 11 10 12 13 16 16 16 16 15 13 13 12 11 11 13 13 13 14 16 17 16 15 15 15 14 15 14 15 15 15 16 16 16 16 16 17 17 17 18 19 19 19
8 8 8 8 8 8 8 8 8 8 9 9 10 12 12 13 14 14 14 13 13 14 14 10 11 13 13 12 13 16 16 13 14 14 14 14 14 14 14 14 15 15 15 15 16 17 16 17 15 17 19 20 21 20
7 8 8 8 8 8 8 8 9 9 10 12 10 11 11 13 12 13 15 15 16 13 13 11 13 13 13 13 14 13 14 14 13 13 13 13 13 14 14 14 15 16 15 15 17 16 16 16 16 16 16 17 18 18
7 7 8 8 8 8 9 9 9 10 11 10 11 11 13 14 15 15 15 14 15 15 13 14 12 13 13 13 14 13 12 13 13 13 12 13 13 13 14 13 16 15 16 15 15 16 15 15 14 14 14 15 16 17
7 7 8 8 8 8 9 10 10 10 11 10 12 12 14 14 14 13 13 13 14 14 12 12 13 12 13 12 13 13 13 12 12 14 16 16 16 15 15 16 16 16 15 15 14 14 14 15 15 16 16 16 14 14
8 8 8 8 8 8 9 9 13 10 11 11 11 12 14 14 13 13 12 14 14 13 14 13 13 14 14 15 15 15 12 12 12 12 15 16 17 17 17 17 16 16 15 15 14 15 14 14 14 15 15 16 16 15
8 9 9 8 8 8 8 9 9 10 10 11 11 11 11 12 13 14 13 14 14 13 12 12 13 15 15 15 15 15 13 13 13 13 13 14 16 17 16 17 17 15 14 13 13 15 15 14 16 16 15 15 15 16
8 8 9 9 9 10 8 11 9 10 10 10 10 13 12 11 12 12 12 12 12 13 13 13 13 13 13 14 14 16 16 16 16 15 16 16 15 16 16 16 16 13 14 14 15 14 14 16 18 19 17 16 17 18
8 8 9 9 8 8 7 12 11 12 12 12 11 13 14 14 14 13 14 12 13 12 13 13 15 16 14 16 16 16 16 16 13 14 15 15 16 16 16 15 15 14 13 16 16 16 16 19 18 19 20 19 18 18
8 8 9 9 8 8 10 12 12 13 13 13 13 14 14 13 13 13 14 13 12 12 13 14 15 13 13 14 13 13 15 15 15 15 15 15 13 15 16 17 17 16 16 17 17 20 20 19 20 20 20 19 18 17
7 8 6 6 8 11 12 13 13 13 13 13 14 14 14 13 13 14 15 13 13 12 12 13 14 13 13 12 12 15 17 18 14 14 17 15 16 16 16 17 19 19 19 17 18 19 19 19 20 20 20 20 20 19
7 8 7 10 11 12 13 14 14 13 13 13 14 14 13 13 15 14 13 12 12 12 13 14 13 12 12 13 13 13 16 17 16 14 17 17 17 16 14 15 15 19 20 20 20 19 19 19 19 19 20 20 20 20
7 9 9 10 12 13 13 12 12 12 13 14 14 14 14 15 13 12 12 11 12 14 16 16 16 14 13 14 16 16 16 17 17 16 17 18 19 19 18 18 17 19 20 20 20 19 19 19 19 18 18 19 18 18
10 10 11 12 12 12 13 13 13 13 13 13 13 14 14 15 14 13 12 15 15 15 16 16 16 15 15 14 14 15 16 16 17 19 19 19 19 20 20 20 20 20 20 19 19 19 19 19 19 18 17 15 15 15
9 10 11 12 12 12 12 12 13 12 12 13 14 14 13 12 13 13 15 15 14 14 13 14 15 15 17 16 15 16 16 16 16 15 14 15 14 18 19 19 19 19 19 19 19 19 17 18 17 16 15 14 14 14
10 11 12 13 13 12 12 12 12 12 14 14 12 10 10 11 14 15 14 13 13 12 13 14 15 15 15 15 15 15 15 15 15 14 13 13 14 16 18 18 19 19 19 19 17 16 16 16 15 14 14 13 13 13
11 12 13 12 12 13 13 13 14 12 13 11 10 10 10 9 12 13 12 12 12 12 13 14 15 15 16 15 15 13 12 13 14 15 15 15 16 16 16 17 17 17 17 16 15 14 14 13 13 12 12 12 12 12
13 12 12 12 12 13 12 11 10 10 10 9 10 10 10 10 11 12 13 13 13 14 15 15 15 16 16 15 15 14 14 13 14 14 14 15 15 15 15 16 16 15 14 14 14 13 13 12 12 11 11 11 11 11
13 13 13 13 13 13 11 10 10 10 10 10 11 12 12 12 14 13 14 15 15 16 16 17 16 16 15 15 15 14 14 14 14 14 14 14 14 15 15 14 14 13 13 13 13 12 12 11 11 10 10 10 10 10

GFSWCAN_925_temp_165.txt.gz
Temp
11 11 10 10 10 9 10 9 9 9 9 9 9 9 9 9 9 10 11 10 10 8 9 11 13 12 12 11 12 13 14 15 14 15 16 16 17 17 18 17 17 18 18 19 20 21 21 21 26 25 21 20 23 23
10 10 9 8 8 9 9 9 9 9 9 9 9 8 8 8 9 9 10 10 9 8 9 12 13 13 14 14 11 11 12 13 13 14 14 14 16 15 16 17 16 17 16 16 17 19 19 20 21 20 19 21 22 21
10 8 8 9 9 9 9 9 8 8 8 8 8 8 8 8 8 7 8 9 9 6 8 8 12 15 14 14 13 11 11 13 14 14 15 14 15 15 16 16 16 16 16 16 17 19 19 19 18 19 20 21 20 21
9 8 9 9 9 9 9 8 8 8 8 8 8 8 8 8 8 8 8 9 8 7 10 9 13 14 14 15 14 13 14 14 13 13 15 16 17 15 15 16 16 16 17 17 16 17 17 19 20 19 20 20 20 21
9 8 9 8 8 8 8 8 8 8 8 9 8 8 8 8 8 9 10 10 9 9 10 9 11 14 15 15 15 14 14 12 13 14 13 14 14 16 15 15 16 16 18 17 17 17 18 18 20 19 20 20 20 21
9 9 8 8 8 8 8 8 8 8 8 8 9 9 8 8 8 9 8 9 10 9 8 9 9 10 14 17 17 16 15 13 15 15 16 15 14 16 15 15 18 17 16 16 20 19 17 18 18 19 19 19 20 19
9 9 8 8 8 8 8 8 8 8 9 9 9 9 9 8 7 8 8 10 10 10 9 10 9 11 15 18 16 16 16 14 13 13 15 14 15 16 14 17 18 18 17 18 17 18 18 18 18 19 18 19 20 20
9 9 8 8 8 8 8 8 8 8 9 9 9 10 9 9 9 9 12 12 10 9 9 11 9 11 15 14 14 13 13 12 14 14 13 14 14 14 15 16 16 18 17 17 18 17 17 17 16 17 17 17 19 19
8 8 8 8 8 8 8 8 8 9 10 10 11 11 10 10 9 11 11 11 10 10 11 10 10 11 12 13 11 11 11 13 12 14 14 15 14 15 17 17 16 17 17 16 16 17 16 16 16 16 17 17 17 20
8 8 8 7 7 8 8 8 8 9 10 11 11 10 10 10 11 11 10 10 10 10 8 9 9 10 12 11 12 12 11 13 14 14 14 15 15 15 14 14 14 14 15 15 16 17 18 18 17 17 16 17 16 17
8 7 7 7 7 7 8 8 8 9 10 10 7 8 10 10 10 9 11 11 11 11 10 8 9 10 11 12 12 12 12 12 14 14 16 16 16 15 15 14 14 14 14 14 14 15 15 15 16 17 16 16 16 16
7 7 7 7 8 8 8 8 7 8 8 7 6 7 8 8 9 11 11 11 12 14 12 11 12 10 11 11 12 12 14 13 15 14 16 16 15 16 15 15 15 15 15 15 16 16 15 16 17 16 16 16 15 16
8 7 7 7 8 8 8 8 7 7 8 8 7 9 8 10 8 11 15 14 14 13 12 12 12 11 11 11 12 12 13 14 14 15 15 16 15 15 15 14 15 15 16 16 16 16 16 17 17 16 15 17 17 16
7 7 8 8 8 8 8 7 7 7 7 9 10 11 9 11 11 12 14 15 14 12 12 12 11 11 10 12 13 13 13 13 16 16 15 14 14 14 14 15 15 15 15 15 15 16 16 16 16 16 16 17 17 16
7 7 8 8 8 8 7 7 7 7 7 8 9 9 10 11 13 14 15 13 14 11 13 12 10 10 13 13 13 13 15 16 14 14 15 14 13 13 14 14 14 14 15 15 15 15 16 16 15 16 17 17 17 17
7 8 8 8 8 8 7 8 8 8 8 8 8 9 10 11 11 13 13 12 12 11 10 9 10 11 13 12 13 15 15 13 13 13 13 13 13 13 13 14 14 14 14 14 14 15 15 15 15 16 17 16 17 16
7 8 8 8 8 9 8 8 8 8 9 11 9 8 9 10 10 11 12 12 12 12 13 10 12 13 12 13 13 13 13 13 13 12 13 13 12 12 13 13 14 14 14 13 14 15 15 15 16 16 15 16 17 17
7 7 7 8 8 8 8 8 7 10 10 8 9 9 10 12 13 13 13 13 13 12 12 14 11 13 13 13 13 13 12 12 12 12 12 13 13 13 14 13 13 14 13 13 14 14 14 14 14 14 15 17 18 18
7 7 7 7 8 8 7 9 8 8 8 8 8 8 9 10 12 14 13 12 12 12 13 12 12 12 12 11 12 12 12 13 12 12 14 14 15 15 15 16 14 14 14 13 12 12 14 14 13 14 14 14 14 15
7 8 8 8 8 8 7 9 10 10 9 9 8 9 9 10 12 13 13 11 13 13 13 12 12 12 12 14 13 14 13 12 10 11 13 15 16 16 16 15 13 14 15 14 14 14 14 15 16 15 15 15 15 15
7 8 8 8 8 7 6 6 8 8 8 9 9 9 10 9 10 10 11 12 11 13 11 11 12 12 13 13 14 13 12 11 11 11 12 12 14 14 14 15 15 14 13 13 13 15 15 13 14 15 15 15 16 16
8 8 8 8 7 8 7 8 7 8 8 9 9 9 10 10 10 11 10 11 10 10 10 11 11 11 12 12 13 14 14 14 13 13 13 13 12 13 12 13 14 13 13 13 14 14 15 16 16 16 16 17 17 17
8 8 8 8 8 7 7 9 9 11 12 10 9 11 12 12 12 12 13 12 12 12 12 12 12 13 13 15 14 15 15 14 12 13 13 13 13 14 14 15 15 14 13 15 15 15 16 18 18 17 17 17 16 16
7 7 7 7 8 8 8 9 10 12 12 12 12 13 13 11 11 12 13 12 12 12 12 12 13 13 11 12 11 12 14 15 15 15 15 14 12 14 15 15 16 16 15 16 17 17 18 18 18 18 18 17 17 17
7 7 6 6 7 9 11 12 13 12 13 12 13 13 13 12 13 13 13 12 12 12 12 12 12 11 11 10 10 13 15 14 13 13 15 15 15 15 16 17 17 17 18 19 18 18 18 19 18 18 18 18 17 17
6 7 6 9 9 9 11 13 13 13 12 13 12 12 11 12 14 13 12 12 12 12 12 13 12 11 12 12 10 11 14 15 14 13 16 16 15 14 14 15 14 17 18 19 19 18 18 17 17 17 16 16 17 16
7 8 7 7 9 11 12 12 11 11 12 13 11 13 12 14 13 13 11 11 11 13 14 14 13 12 11 12 13 14 15 15 15 16 17 17 17 17 18 17 16 18 19 19 19 18 17 16 16 15 14 14 14 14
8 8 8 9 9 10 12 12 12 13 11 10 10 12 14 14 14 12 10 14 14 14 14 14 15 15 14 13 13 14 15 16 17 17 17 17 17 18 18 18 19 19 18 18 18 19 18 16 15 15 14 13 13 13
7 7 8 9 11 11 12 12 12 12 11 12 13 13 12 11 11 11 14 15 14 13 13 14 14 15 15 15 15 15 15 15 16 14 13 12 12 16 18 18 18 17 17 16 17 16 16 15 14 13 13 13 12 12
7 7 9 10 12 12 12 11 10 10 11 11 10 9 8 8 13 14 13 13 12 12 12 13 13 13 13 13 13 13 13 14 15 14 12 12 12 14 16 17 17 16 16 15 14 14 14 14 13 13 12 12 12 11
8 8 9 9 10 11 12 12 11 11 11 9 9 8 9 8 11 13 12 12 11 11 11 11 13 14 14 13 13 12 11 13 14 14 14 14 15 16 16 15 15 15 15 14 14 13 12 12 11 11 11 11 11 11
9 10 10 11 11 12 11 11 10 10 10 9 10 9 10 9 10 11 13 12 12 12 13 14 15 14 14 14 14 14 13 13 14 14 14 14 15 15 14 14 14 14 13 13 12 12 11 10 10 10 10 10 10 10
10 10 10 11 11 12 10 10 10 10 10 10 10 11 11 11 13 13 14 14 15 15 15 15 16 15 15 15 14 14 14 13 13 13 14 14 14 14 13 13 13 12 12 12 11 11 11 10 10 9 9 9 9 9

GFSWCAN_925_temp_168.txt.gz
Temp
9 10 11 9 8 8 9 9 9 9 9 9 8 8 9 9 9 10 10 9 9 7 7 10 11 11 11 10 11 11 13 13 13 14 15 15 15 16 17 17 17 17 16 17 18 19 20 20 22 23 21 20 22 23
9 10 10 8 9 9 9 9 9 9 9 8 8 8 8 8 8 9 10 9 8 7 8 10 12 13 13 13 10 10 11 12 12 13 14 13 15 15 15 18 16 16 15 16 16 16 17 17 19 18 18 19 21 20
9 9 9 9 9 9 9 9 8 8 8 8 8 8 8 8 8 7 7 8 8 5 7 8 11 13 14 13 13 10 10 12 12 12 12 12 14 14 15 15 16 16 15 15 15 17 16 18 17 18 19 19 19 18
9 9 9 8 9 8 8 8 8 8 8 8 8 8 8 8 8 8 7 8 7 7 9 9 12 13 13 13 13 12 12 12 11 11 13 12 14 13 14 14 14 14 15 15 15 16 17 17 17 17 18 18 19 19
9 9 9 9 8 8 8 8 8 8 8 8 8 8 8 9 9 9 9 9 9 8 8 8 10 14 14 14 13 12 11 10 13 14 13 13 12 14 13 14 14 14 15 15 16 16 16 18 18 18 19 18 19 19
9 9 9 8 8 8 8 8 8 8 8 9 9 9 8 8 9 9 7 9 9 9 7 9 9 9 13 14 13 13 12 10 13 13 15 15 15 16 16 14 17 15 15 15 16 15 16 18 17 18 18 18 18 19
9 9 9 8 8 8 8 8 8 8 8 9 9 9 9 9 8 9 8 10 9 9 8 8 8 10 13 14 14 15 13 13 11 11 12 13 14 14 14 17 19 17 17 17 17 17 16 17 17 18 18 18 18 18
9 9 9 8 8 8 8 8 8 8 9 9 10 10 10 10 9 10 11 11 10 9 8 9 9 10 13 12 13 10 12 11 11 13 12 12 13 13 14 15 16 16 16 16 16 15 15 16 16 16 16 16 17 17
8 8 8 8 8 8 8 8 8 9 9 10 10 11 10 10 10 10 11 11 10 10 11 8 9 11 11 12 10 10 10 12 11 13 13 14 14 15 16 14 14 16 16 15 15 15 16 16 16 17 15 16 16 17
8 8 8 8 7 7 8 8 8 9 10 10 10 10 9 9 10 10 10 10 9 9 7 9 7 9 10 10 11 11 11 12 13 13 13 14 15 14 14 15 13 13 13 14 14 15 18 17 17 17 18 16 15 16
8 8 8 8 7 7 8 8 8 9 10 9 6 7 9 10 9 9 10 11 11 11 9 8 8 9 10 11 11 12 12 11 13 14 15 15 15 15 15 15 14 13 13 13 13 14 14 14 15 15 16 16 16 16
8 8 8 7 7 7 7 7 7 8 7 6 6 6 7 8 7 10 10 11 12 13 11 10 11 8 9 9 11 11 14 13 14 13 15 15 14 14 14 15 15 15 15 15 15 15 15 15 15 15 15 16 16 16
8 8 7 7 8 8 8 7 7 7 7 7 7 8 8 9 7 10 14 14 13 11 11 11 12 10 9 10 11 12 12 13 13 15 15 15 14 14 13 14 14 15 15 16 16 15 16 15 15 16 15 16 17 16
8 7 8 8 8 8 8 7 7 7 7 9 10 10 9 10 10 11 13 12 13 11 11 10 10 10 9 12 14 13 13 13 15 15 14 14 14 13 13 13 14 14 14 15 15 16 15 15 15 16 16 17 16 15
7 7 8 8 8 8 7 7 7 7 7 8 9 8 9 9 9 12 12 13 13 10 11 10 9 9 12 13 13 13 14 15 12 13 13 13 13 13 13 13 14 14 14 14 15 15 15 15 15 15 16 17 16 16
7 8 8 8 8 8 8 8 7 7 7 7 7 8 9 9 10 11 13 13 10 9 8 9 10 11 12 12 13 14 13 13 12 12 12 12 12 13 13 13 13 13 13 14 13 14 14 14 13 14 15 17 17 16
7 8 7 8 8 8 8 8 7 7 7 8 8 7 8 8 9 10 12 13 12 11 13 10 13 13 12 12 13 13 12 12 12 12 12 12 12 12 13 13 13 12 12 12 13 13 13 14 15 15 14 15 16 16
7 7 7 7 8 8 8 8 7 8 10 8 8 8 7 8 9 10 10 10 12 11 10 13 12 13 12 12 12 11 11 12 12 12 12 13 12 13 14 13 14 12 12 12 12 12 13 14 14 13 14 15 16 15
7 7 7 7 7 7 6 8 7 7 8 7 6 6 7 8 8 10 10 12 12 11 12 12 12 11 11 11 11 12 12 12 12 12 11 12 12 13 14 14 13 13 13 13 13 12 13 13 13 13 14 14 14 14
7 8 8 7 7 7 7 7 9 8 9 8 6 7 7 8 9 9 11 12 12 11 11 12 11 12 12 12 12 12 13 11 10 10 12 13 14 14 14 13 12 13 13 15 14 14 14 14 14 15 14 15 15 14
7 7 8 8 7 7 5 5 7 8 7 8 8 7 8 7 8 9 9 9 12 13 11 10 11 12 12 13 13 12 11 11 11 11 12 12 13 12 12 13 14 13 13 13 13 13 14 13 13 14 15 15 15 15
7 7 8 7 7 7 6 7 6 6 7 8 7 7 8 9 10 11 9 11 9 10 9 9 10 10 11 12 12 13 13 13 13 12 12 11 11 12 12 13 13 12 13 13 13 13 14 15 15 15 15 15 15 15
7 8 7 7 8 7 7 7 8 8 9 10 8 10 10 10 10 11 12 11 12 11 12 11 12 12 12 14 13 14 14 13 12 12 12 12 13 13 13 14 14 13 12 15 15 15 16 17 17 17 16 16 16 16
7 7 7 8 8 8 8 8 7 9 11 12 11 12 12 10 10 11 12 12 11 11 11 11 12 12 12 12 10 10 13 13 13 14 14 13 12 13 14 14 14 14 15 15 16 17 17 17 17 18 17 17 16 16
5 6 6 6 8 9 10 10 10 11 13 12 12 12 12 11 11 13 13 12 11 11 11 12 12 12 11 9 9 11 13 13 12 11 14 14 14 15 16 17 16 16 17 17 17 17 16 16 16 16 16 15 14 14
7 7 6 8 8 8 8 10 12 12 12 12 11 10 9 11 13 13 12 11 11 11 12 12 11 11 12 10 9 10 12 13 13 12 14 14 14 15 14 14 14 17 17 17 17 16 15 15 14 14 13 13 13 12
7 8 6 6 7 10 10 11 11 11 12 12 10 11 11 14 13 12 11 11 11 13 13 12 12 11 10 11 12 13 13 13 13 14 15 16 16 16 16 15 14 17 17 17 18 18 16 15 14 13 13 13 13 13
7 7 7 7 7 7 10 10 11 12 12 9 9 11 13 14 13 12 10 14 14 14 14 13 13 13 14 14 13 13 14 14 15 16 16 16 16 16 16 17 17 17 18 17 17 16 15 14 13 13 12 12 12 12
6 6 6 7 8 8 9 10 12 12 12 11 11 12 11 10 10 11 14 14 13 13 12 13 14 14 13 14 14 14 13 14 15 14 13 13 13 15 15 15 16 17 17 16 15 14 14 14 13 13 12 12 11 11
6 5 7 8 9 10 10 10 10 10 10 11 9 8 8 7 12 13 12 12 11 11 12 12 12 12 11 12 13 13 13 14 14 14 13 13 12 13 14 14 14 14 14 14 13 13 13 13 12 12 11 11 11 10
6 6 7 8 9 10 11 12 11 10 9 8 7 7 8 7 10 12 12 11 10 10 10 10 11 12 12 12 12 12 12 13 13 14 14 14 14 14 13 13 13 13 13 13 13 12 12 11 11 10 10 10 10 10
7 8 9 10 10 11 11 10 10 9 10 9 10 9 9 8 10 11 12 11 10 10 11 12 12 12 13 13 13 13 13 13 14 14 14 13 13 13 13 13 13 12 12 11 11 11 10 10 9 9 9 9 9 9
8 9 9 10 11 11 10 10 10 10 10 10 10 10 11 11 12 11 13 13 13 13 14 15 14 14 14 14 13 13 13 13 13 13 13 13 13 13 13 12 12 12 11 11 10 10 9 9 9 8 8 9 9 9

GFSWCAN_925_temp_171.txt.gz
Temp
10 10 10 9 9 8 8 9 9 9 9 9 9 9 9 8 9 10 9 9 10 11 13 13 14 14 14 15 16 16 17 17 19 19 19 20 20 20 20 20 21 21 22 23 22 22 23 22 24 24 21 22 24 25
9 10 9 9 9 9 9 9 9 9 9 9 9 9 9 8 8 8 9 8 8 8 12 10 11 12 14 15 15 14 15 15 17 19 18 17 19 18 19 20 17 20 19 20 20 22 21 20 20 22 22 21 23 22
9 9 9 9 8 9 8 8 8 8 8 8 8 9 9 9 8 7 7 8 7 9 11 12 15 13 13 12 13 15 15 16 16 15 18 17 17 18 19 20 19 18 18 18 19 22 21 20 21 21 21 22 22 22
10 9 9 9 9 8 8 8 8 8 8 8 9 9 9 9 8 8 7 8 7 9 10 15 12 13 13 12 12 13 15 14 15 16 17 18 18 18 19 19 19 20 18 19 19 20 20 20 20 21 22 22 22 22
9 9 9 9 8 8 8 8 8 8 8 9 9 9 9 9 8 8 9 9 9 10 11 13 13 13 13 12 13 13 13 14 14 14 15 17 18 18 20 18 19 20 20 19 19 19 16 16 17 19 21 21 22 21
9 9 9 9 8 8 8 8 8 8 9 9 9 9 9 9 9 9 10 9 9 8 9 12 13 13 14 14 14 14 13 13 15 16 17 19 18 18 18 19 20 21 20 20 19 19 18 16 16 18 19 20 21 21
9 9 9 9 8 8 8 8 8 9 9 9 9 10 10 9 9 9 11 9 9 9 10 12 14 16 13 15 17 16 14 14 15 15 17 18 18 16 17 17 20 20 20 20 20 19 18 18 18 21 21 21 20 20
9 9 9 8 8 8 8 8 8 9 9 9 10 10 10 10 9 10 10 10 9 9 10 12 14 16 14 18 18 15 16 15 16 17 17 17 17 15 16 18 17 18 18 19 19 18 18 19 19 19 20 19 19 21
8 8 8 8 8 8 8 8 9 9 9 10 10 10 10 10 10 9 10 10 9 10 12 12 14 16 15 17 16 15 14 16 16 16 17 16 15 15 15 16 16 16 17 17 18 18 18 18 19 19 20 19 19 20
8 8 8 8 8 8 8 8 8 9 10 10 10 10 12 9 9 9 9 10 11 11 11 12 12 15 15 16 16 14 15 16 16 17 16 15 15 13 14 14 15 15 16 16 17 18 19 19 19 19 19 20 20 20
8 8 8 8 8 8 8 8 8 9 10 9 8 10 9 9 9 11 12 12 12 13 12 12 13 14 15 15 15 14 15 15 16 17 16 15 14 14 14 14 14 15 16 17 17 17 18 18 18 18 18 19 19 20
8 8 8 8 8 8 8 8 8 8 7 6 6 6 7 10 11 12 13 13 13 15 14 14 15 13 15 13 13 15 15 15 16 16 16 13 13 14 13 13 13 13 14 15 15 16 18 18 18 18 18 19 19 19
8 8 8 8 8 8 8 8 7 7 7 6 7 10 10 11 10 12 15 14 15 15 15 15 16 15 14 13 15 14 15 16 17 16 14 14 14 14 13 13 13 14 15 15 16 16 17 18 18 18 18 19 19 18
8 8 8 8 8 8 8 7 7 7 7 10 10 10 11 12 13 14 15 15 16 14 16 15 16 14 13 14 15 15 16 15 14 12 13 13 13 13 12 13 14 15 16 16 16 15 15 18 18 17 18 18 18 18
8 8 8 8 8 8 8 7 7 7 7 9 10 9 11 13 13 14 15 15 16 14 15 16 14 14 15 14 13 15 15 13 11 13 13 12 13 13 13 14 15 15 15 15 15 16 16 17 17 18 17 17 18 17
7 8 8 8 8 8 8 8 7 7 7 8 8 10 12 12 14 15 15 16 15 15 13 14 14 14 14 14 13 14 14 12 13 13 12 12 12 13 13 14 15 16 15 15 15 15 16 17 16 16 17 17 17 18
7 8 7 7 8 8 8 8 7 8 9 9 9 11 11 12 13 14 15 15 13 14 16 15 15 14 14 13 13 12 12 12 12 12 13 13 13 13 14 14 15 16 15 15 16 15 15 14 16 16 17 15 15 16
7 7 7 7 8 8 7 7 8 9 10 12 11 13 11 13 14 15 14 14 14 14 13 16 16 15 14 13 12 12 12 13 13 14 15 15 14 14 14 15 16 15 15 15 16 16 16 15 14 15 15 16 16 16
7 7 7 7 7 7 7 8 8 10 11 12 12 12 12 13 13 13 14 14 14 13 14 13 15 15 14 13 13 13 13 14 14 15 15 14 14 14 14 15 15 15 16 14 15 15 15 15 14 15 14 14 14 14
7 7 7 7 7 7 8 9 8 9 11 12 11 12 12 14 14 14 15 15 14 13 13 14 16 17 17 16 15 14 14 15 14 14 16 17 16 15 15 15 15 15 15 16 15 14 16 15 15 15 14 15 15 15
7 7 7 7 7 6 7 9 9 10 11 11 12 12 14 12 13 14 14 14 15 16 16 17 17 17 15 14 13 13 12 13 13 14 15 15 16 14 14 16 15 15 16 16 18 16 16 16 15 15 16 15 14 15
7 7 7 7 7 7 7 8 9 10 10 12 12 12 13 14 14 14 12 13 13 15 15 15 15 14 14 14 14 13 13 13 13 13 13 13 16 16 16 15 16 18 17 16 16 16 16 16 15 16 16 15 14 15
7 7 7 7 8 8 8 8 9 11 11 13 12 13 14 14 14 13 13 13 12 11 12 12 12 12 12 14 13 13 13 13 15 14 15 15 15 14 14 14 14 16 17 17 15 15 16 16 17 17 17 17 17 17
7 7 8 8 8 9 10 10 10 11 12 13 12 14 15 14 14 13 14 12 11 11 11 12 12 12 13 14 13 12 12 12 13 13 14 14 16 16 14 16 16 16 15 16 16 17 17 16 16 17 17 17 17 16
6 7 7 6 9 9 11 11 11 12 13 14 14 14 15 12 14 14 14 13 11 12 11 11 12 12 13 14 14 13 12 11 13 13 14 13 16 16 16 17 16 16 16 17 18 18 17 16 15 15 15 15 15 14
6 8 7 9 10 10 11 11 12 13 14 14 14 14 13 14 14 13 11 11 11 11 11 13 14 13 15 14 14 14 12 11 11 13 15 14 14 15 15 16 15 17 16 16 17 17 16 16 16 16 15 14 14 15
7 10 9 9 9 10 11 12 13 13 13 13 14 14 14 14 14 12 11 10 11 13 13 13 13 13 14 13 14 13 13 12 12 13 13 14 15 15 15 17 18 16 16 16 16 16 16 15 15 15 15 14 14 14
9 9 9 10 9 10 11 12 12 13 13 13 13 13 14 15 14 12 12 13 13 12 13 13 12 12 12 13 13 13 13 12 13 13 14 14 14 15 15 15 16 16 16 16 15 14 14 14 14 14 14 13 13 13
8 9 9 10 10 10 11 12 13 14 14 14 14 14 14 15 15 14 13 12 12 12 13 13 14 13 13 13 13 13 13 13 15 15 15 17 17 16 15 14 13 13 14 14 14 14 13 13 13 13 12 12 12 12
9 9 10 10 10 11 12 13 13 14 13 14 14 13 13 14 13 12 12 12 12 13 13 13 12 12 13 13 12 13 14 14 13 15 16 16 15 12 12 13 12 12 13 13 13 12 12 12 12 12 12 12 12 12
10 9 9 10 11 12 13 13 13 12 13 13 13 12 12 13 12 12 12 12 12 11 11 11 12 11 12 13 14 13 13 13 13 13 13 12 12 12 12 12 12 12 13 13 13 13 13 12 12 12 12 11 11 12
10 10 11 11 11 10 9 9 9 9 9 9 10 10 10 10 10 11 12 11 12 12 11 12 14 13 12 12 13 13 13 12 12 12 12 12 12 12 12 12 12 12 12 12 11 11 11 11 11 11 11 11 11 11
10 11 11 11 10 10 9 9 10 10 10 10 10 10 11 12 14 14 12 12 13 13 14 13 12 12 13 13 13 13 13 13 13 13 13 13 12 12 12 12 11 11 11 11 11 11 10 10 10 10 10 10 10 10

GFSWCAN_925_temp_174.txt.gz
Temp
9 9 9 9 9 9 9 9 9 9 9 9 9 9 9 9 11 10 12 10 13 17 19 18 18 19 20 20 21 21 21 22 23 23 24 25 24 25 23 25 25 25 25 27 27 25 24 25 27 26 25 26 26 27
9 9 9 9 9 9 9 8 9 9 9 9 9 9 9 9 9 10 14 11 10 13 18 14 15 16 17 18 19 20 20 20 22 23 23 23 23 24 23 23 24 23 22 22 22 23 25 25 24 25 26 25 25 25
9 10 9 9 9 9 8 8 9 9 9 9 9 9 9 9 8 9 11 10 12 15 18 18 20 17 16 16 17 19 21 20 21 20 22 22 20 23 22 24 23 24 23 22 22 25 25 24 25 26 25 25 25 26
10 10 9 9 9 9 8 8 9 9 9 9 9 9 9 9 9 8 10 11 12 13 17 21 17 18 17 17 16 17 19 19 20 20 21 21 20 23 22 22 22 23 23 22 23 24 24 24 24 24 23 23 24 25
9 9 9 9 9 9 8 8 8 9 9 9 9 9 9 9 9 9 9 10 10 14 17 19 19 19 18 17 17 17 17 19 17 16 19 20 22 22 22 22 22 23 22 20 21 23 23 22 23 21 21 22 22 23
9 9 9 9 9 9 8 8 9 9 9 9 9 9 10 9 10 11 14 11 11 11 13 18 20 19 19 19 19 18 18 19 18 20 21 22 23 20 20 21 23 23 22 22 21 22 23 23 23 23 19 20 23 24
9 9 8 9 9 8 8 8 9 9 9 9 10 10 10 10 9 14 15 12 10 10 14 17 20 21 19 20 22 21 19 19 19 20 21 22 22 20 21 20 21 20 20 21 22 23 22 23 22 21 19 19 21 23
9 8 8 8 8 8 8 8 9 9 9 10 10 10 11 11 11 13 11 10 9 12 15 17 20 21 20 21 21 21 21 19 20 20 21 20 20 19 18 17 15 15 17 19 21 21 22 22 21 18 17 20 22 23
8 8 8 8 8 8 8 8 9 9 9 10 10 10 10 12 15 12 10 10 10 13 14 18 19 20 21 22 21 21 20 19 20 20 20 19 17 15 14 14 14 14 15 16 19 21 22 22 22 21 22 23 23 23
8 8 9 8 8 8 8 8 9 9 10 10 10 14 15 13 11 10 9 12 13 13 14 17 19 20 20 21 20 19 20 20 20 20 20 16 15 14 14 13 13 13 14 15 17 19 20 21 21 21 22 22 23 23
8 8 8 8 8 8 8 8 9 9 10 12 14 16 12 11 13 15 14 14 15 17 18 18 19 19 21 19 19 19 19 20 19 18 19 15 15 15 14 13 13 13 13 15 15 18 19 20 21 21 22 22 22 23
8 8 8 8 8 8 8 8 8 9 9 8 7 7 10 14 15 15 17 17 16 18 19 19 19 19 19 18 17 18 18 18 18 21 19 14 15 14 14 13 13 13 13 14 15 15 17 19 20 21 22 22 22 22
8 8 8 8 8 8 8 8 8 8 7 7 9 13 14 15 13 16 18 18 18 19 20 20 19 20 19 18 19 19 18 19 21 15 14 14 14 15 14 13 15 17 18 19 18 17 15 17 19 21 21 21 22 22
8 8 8 8 8 8 8 8 7 7 9 13 14 9 15 16 17 19 19 19 19 19 20 20 20 19 19 18 17 17 18 18 14 14 14 14 13 15 15 14 17 18 19 19 18 16 16 19 21 20 21 21 22 22
8 8 8 8 8 8 8 8 8 8 11 13 13 12 16 18 18 18 19 19 19 20 20 20 20 19 19 17 16 17 15 13 12 14 13 14 14 15 15 16 19 19 19 18 18 18 18 19 20 21 20 21 21 21
8 8 7 8 8 8 8 8 8 9 11 13 12 13 17 17 19 19 19 19 19 20 19 19 18 17 17 17 16 14 14 15 13 13 15 17 16 16 16 18 19 19 18 18 18 18 17 17 18 19 20 20 20 21
7 9 8 8 8 8 8 9 9 11 13 13 15 16 16 17 17 18 19 19 18 18 18 18 17 17 18 16 14 13 13 13 15 16 18 18 17 17 17 18 19 19 16 17 17 18 17 16 17 17 18 18 18 18
8 8 8 7 8 8 9 9 11 12 12 15 16 17 17 17 17 18 19 18 17 17 17 18 18 17 17 17 16 15 13 16 17 17 17 18 18 17 17 18 18 18 17 15 16 19 19 18 15 15 15 17 17 17
7 7 7 7 7 8 11 11 11 13 15 16 16 17 17 17 18 17 18 18 18 18 17 18 17 17 17 18 18 17 17 17 17 18 18 17 18 18 18 17 17 20 18 19 19 20 19 19 19 18 18 17 16 15
7 7 8 8 7 10 11 13 11 12 14 16 16 16 17 17 18 18 18 18 18 17 17 17 18 19 18 19 20 18 18 17 17 17 18 18 19 19 18 17 18 20 20 21 21 19 21 20 19 19 18 17 16 16
7 7 7 8 9 9 11 13 13 14 15 15 17 16 17 18 17 18 18 19 18 18 18 19 19 18 19 18 17 16 16 15 15 17 18 19 19 19 19 20 20 21 20 21 22 22 21 21 19 18 18 15 15 14
7 7 8 8 10 10 10 12 13 14 13 16 16 16 16 17 18 19 17 17 17 18 18 17 19 18 17 17 16 15 16 16 16 16 15 17 18 18 19 20 20 21 22 21 21 22 21 21 20 20 18 18 17 15
7 7 9 10 10 10 10 11 12 14 14 15 16 16 17 17 18 18 16 17 15 13 12 13 13 13 15 16 14 15 16 15 17 16 14 17 19 20 20 18 18 21 21 21 21 21 21 19 20 21 20 19 20 20
7 9 10 10 10 11 13 12 13 13 15 15 15 16 17 18 18 16 16 14 12 11 12 12 12 13 14 16 17 17 16 15 16 16 15 18 18 20 19 20 20 20 18 18 21 21 21 19 18 20 20 19 19 18
8 9 9 8 11 10 11 13 14 15 15 16 16 17 17 17 16 16 14 13 12 12 12 12 12 14 16 17 18 17 16 15 17 17 17 18 18 19 19 17 17 18 20 21 21 21 20 20 19 18 18 19 19 19
7 10 9 11 12 12 14 14 14 15 15 15 16 17 17 17 16 15 11 11 11 12 12 13 16 16 18 16 17 17 17 16 16 16 16 15 14 15 15 16 17 17 18 19 20 20 20 19 19 19 19 18 17 18
8 10 12 13 13 13 13 14 15 15 15 15 16 16 16 15 16 12 11 11 12 14 14 15 16 17 17 15 14 15 16 16 13 14 16 15 15 16 18 20 20 18 18 18 19 19 19 19 18 18 18 18 17 17
10 12 11 13 13 13 13 13 14 14 15 17 16 15 15 16 15 14 11 11 12 15 15 15 16 16 16 16 14 15 17 14 16 17 18 18 18 18 18 18 16 15 15 15 17 18 18 17 17 17 17 16 16 15
10 12 13 12 13 13 13 13 14 16 17 17 16 16 17 18 17 16 13 14 14 15 16 16 16 16 16 16 14 16 16 17 19 18 18 18 19 18 17 17 16 16 15 14 14 15 14 15 15 15 15 15 15 15
12 14 13 13 12 13 14 15 15 16 17 17 17 17 17 17 17 16 16 15 15 16 16 16 16 16 16 18 14 16 13 13 15 18 19 19 18 17 16 16 16 16 16 16 16 15 14 15 15 15 15 15 15 15
14 13 12 12 13 14 12 12 13 13 15 15 16 15 15 16 15 15 15 15 15 15 15 16 16 16 17 17 15 14 14 14 14 15 16 17 16 16 16 16 16 16 16 15 15 15 15 15 15 15 14 14 14 14
13 12 13 12 13 10 9 9 9 9 9 10 10 11 11 12 13 15 13 13 15 16 14 16 18 17 16 16 16 15 15 16 16 15 16 15 15 15 15 15 15 15 15 15 14 14 14 14 14 14 14 13 13 13
14 14 13 13 10 10 10 10 10 10 10 10 11 11 11 12 15 14 14 15 17 17 17 16 15 15 15 15 14 14 13 12 12 12 13 13 13 13 15 14 14 14 14 14 14 13 13 13 13 13 13 13 13 12